FLOCK 3R-14 (43749 NORAD) Tracking and Keplerian Element Data

This shows tracking and keplerian element data for the satellite.

Feedback or suggestion? Click here.




ElementValue
Catalog43749
NameFLOCK 3R-14
Epoch Orbit173
Epoch Day344.51867841
Epoch Year2018
RAAN49.5366
Inclination97.4843
Eccentricity0.0020551
Argument of Perigee290.5219
Mean Anonmoly177.2788
Mean Motion15.26940316
Decay Rate2.667E-05
L11 43749U 18096AG 18344.51867841 .00002667 00000-0 10317-3 0 9997
L22 43749 97.4843 49.5366 0020551 290.5219 177.2788 15.26940316 1736

Live tracking and technical data element details for FLOCK 3R-14 (NORAD 43749). FLOCK 3R-14 can be tracked NOW for your location showing map with azimuth and elevation plus other details from your city location.

Track the satellite on the map from your city or location and see movement details for azimuth, elevation, latitude, longitude, range, height, and movement on the map or in text.







IsCatalogInMostPopularTable: catalog: 43749, numindb: 2
Update: records affected: 1



GetName: 43749 FLOCK 3R-14

Hit Count: updated at: Tue, 11 Dec 2018 02:32:44 GMT